QPF
0.00 0.00 0.00 0.00 0.03 0.03 0.05 0.06 0.03 0.01 0.04 0.00 0.00 0.00 0.00 0.05 0.07 0.05 0.00 0.00 0.00 0.00 0.00 0.00 0.00 0.01 0.01 0.01 0.00 0.00 0.00 0.00 0.00 0.00 0.00 0.00 0.00 0.00 0.00 0.00 0.00 0.00 0.00 0.00 0.00 0.00 0.01 0.03 0.04
0.01 0.00 0.00 0.00 0.03 0.06 0.25 0.36 0.03 0.01 0.02 0.00 0.00 0.00 0.00 0.00 0.00 0.00 0.00 0.00 0.00 0.00 0.00 0.00 0.00 0.01 0.01 0.00 0.00 0.00 0.00 0.00 0.00 0.00 0.00 0.00 0.00 0.00 0.00 0.00 0.00 0.00 0.00 0.01 0.04 0.04 0.02 0.00 0.01
0.00 0.00 0.00 0.00 0.02 0.04 0.22 0.23 0.05 0.00 0.00 0.00 0.00 0.00 0.01 0.01 0.00 0.01 0.00 0.00 0.00 0.00 0.00 0.00 0.00 0.05 0.01 0.00 0.00 0.00 0.00 0.00 0.00 0.00 0.00 0.00 0.00 0.00 0.00 0.00 0.00 0.00 0.00 0.00 0.01 0.00 0.00 0.00 0.01
0.00 0.00 0.01 0.01 0.00 0.00 0.03 0.09 0.01 0.00 0.00 0.00 0.00 0.00 0.00 0.00 0.00 0.02 0.00 0.00 0.00 0.00 0.00 0.00 0.00 0.02 0.01 0.00 0.00 0.00 0.00 0.00 0.00 0.00 0.00 0.00 0.00 0.00 0.00 0.00 0.00 0.00 0.00 0.00 0.00 0.00 0.00 0.00 0.00
0.00 0.01 0.04 0.00 0.00 0.00 0.00 0.01 0.00 0.02 0.01 0.00 0.00 0.02 0.00 0.00 0.00 0.00 0.00 0.00 0.00 0.00 0.01 0.00 0.00 0.00 0.01 0.00 0.01 0.00 0.00 0.00 0.00 0.00 0.00 0.00 0.00 0.00 0.00 0.00 0.00 0.00 0.00 0.00 0.00 0.00 0.00 0.00 0.00
0.00 0.00 0.01 0.00 0.00 0.00 0.01 0.00 0.01 0.02 0.01 0.00 0.00 0.00 0.00 0.00 0.00 0.00 0.00 0.00 0.01 0.12 0.00 0.00 0.00 0.00 0.03 0.01 0.00 0.00 0.00 0.00 0.00 0.00 0.00 0.00 0.00 0.00 0.00 0.00 0.00 0.00 0.00 0.00 0.00 0.00 0.00 0.00 0.00
0.00 0.00 0.00 0.00 0.01 0.01 0.01 0.00 0.00 0.01 0.02 0.01 0.00 0.00 0.00 0.00 0.00 0.00 0.01 0.00 0.00 0.01 0.00 0.00 0.00 0.00 0.00 0.00 0.00 0.00 0.00 0.00 0.00 0.00 0.00 0.00 0.00 0.00 0.00 0.00 0.00 0.00 0.00 0.00 0.00 0.00 0.00 0.00 0.00
0.00 0.00 0.01 0.01 0.00 0.00 0.00 0.00 0.00 0.00 0.14 0.04 0.00 0.00 0.00 0.00 0.00 0.00 0.00 0.00 0.00 0.00 0.00 0.00 0.00 0.00 0.01 0.00 0.00 0.00 0.00 0.00 0.00 0.00 0.00 0.00 0.00 0.00 0.00 0.00 0.00 0.00 0.00 0.00 0.00 0.00 0.00 0.00 0.02
0.00 0.00 0.05 0.05 0.00 0.00 0.00 0.00 0.00 0.00 0.07 0.03 0.00 0.00 0.00 0.00 0.00 0.00 0.00 0.00 0.00 0.00 0.00 0.00 0.00 0.03 0.14 0.09 0.00 0.00 0.00 0.00 0.00 0.00 0.00 0.00 0.00 0.00 0.00 0.00 0.00 0.00 0.00 0.00 0.00 0.00 0.00 0.00 0.08
0.00 0.00 0.03 0.02 0.00 0.00 0.00 0.01 0.01 0.00 0.01 0.01 0.00 0.00 0.00 0.00 0.00 0.00 0.00 0.00 0.00 0.00 0.01 0.03 0.07 0.02 0.01 0.05 0.00 0.00 0.01 0.00 0.00 0.00 0.00 0.00 0.00 0.00 0.00 0.00 0.00 0.00 0.00 0.00 0.00 0.03 0.01 0.01 0.24
0.00 0.00 0.00 0.00 0.00 0.00 0.00 0.00 0.01 0.00 0.01 0.01 0.03 0.00 0.00 0.00 0.00 0.00 0.00 0.00 0.00 0.00 0.00 0.02 0.05 0.00 0.01 0.04 0.07 0.01 0.05 0.02 0.00 0.00 0.00 0.00 0.00 0.00 0.00 0.00 0.00 0.00 0.00 0.00 0.00 0.03 0.00 0.01 0.76
0.00 0.00 0.00 0.00 0.00 0.00 0.00 0.01 0.00 0.03 0.08 0.05 0.02 0.00 0.00 0.00 0.00 0.00 0.00 0.00 0.00 0.00 0.00 0.00 0.00 0.02 0.02 0.05 0.04 0.00 0.01 0.05 0.02 0.00 0.00 0.00 0.00 0.00 0.01 0.02 0.03 0.00 0.00 0.01 0.00 0.05 0.00 0.00 0.11
0.00 0.00 0.00 0.00 0.00 0.00 0.00 0.00 0.00 0.03 0.04 0.01 0.00 0.00 0.00 0.00 0.00 0.00 0.00 0.00 0.00 0.00 0.00 0.00 0.00 0.02 0.02 0.08 0.09 0.04 0.03 0.00 0.00 0.00 0.00 0.00 0.00 0.00 0.00 0.00 0.00 0.00 0.00 0.01 0.00 0.00 0.00 0.00 0.00
0.00 0.00 0.00 0.00 0.00 0.00 0.00 0.01 0.00 0.01 0.00 0.00 0.00 0.00 0.00 0.00 0.00 0.00 0.00 0.00 0.00 0.00 0.00 0.00 0.00 0.04 0.02 0.04 0.01 0.02 0.02 0.00 0.00 0.00 0.00 0.00 0.00 0.02 0.00 0.01 0.00 0.00 0.00 0.00 0.00 0.01 0.00 0.00 0.00
0.00 0.00 0.00 0.00 0.00 0.00 0.00 0.03 0.00 0.06 0.02 0.00 0.00 0.00 0.00 0.00 0.00 0.00 0.00 0.00 0.00 0.00 0.00 0.01 0.00 0.04 0.06 0.01 0.01 0.01 0.00 0.00 0.00 0.00 0.00 0.00 0.00 0.01 0.00 0.02 0.04 0.02 0.00 0.00 0.00 0.02 0.04 0.05 0.00
0.00 0.00 0.00 0.00 0.00 0.00 0.01 0.08 0.01 0.02 0.05 0.01 0.00 0.00 0.00 0.00 0.00 0.00 0.00 0.00 0.00 0.00 0.00 0.00 0.01 0.00 0.03 0.04 0.02 0.00 0.00 0.00 0.00 0.00 0.00 0.00 0.00 0.01 0.03 0.14 0.43 0.18 0.02 0.01 0.01 0.15 0.15 0.23 0.02
0.00 0.00 0.00 0.00 0.00 0.00 0.01 0.03 0.16 0.01 0.00 0.00 0.00 0.00 0.00 0.00 0.00 0.00 0.00 0.00 0.00 0.00 0.00 0.00 0.00 0.01 0.00 0.01 0.01 0.00 0.00 0.00 0.00 0.00 0.00 0.00 0.00 0.00 0.03 0.87 0.78 0.07 0.07 0.07 0.07 0.03 0.08 0.21 0.01
0.00 0.00 0.00 0.00 0.00 0.00 0.00 0.01 0.13 0.03 0.00 0.00 0.00 0.00 0.00 0.00 0.00 0.00 0.00 0.00 0.00 0.00 0.00 0.00 0.00 0.00 0.01 0.00 0.04 0.01 0.00 0.00 0.00 0.00 0.00 0.00 0.00 0.00 0.00 0.08 0.42 0.03 0.15 0.37 0.10 0.01 0.01 0.03 0.00
0.00 0.00 0.00 0.00 0.00 0.00 0.00 0.00 0.02 0.02 0.00 0.00 0.00 0.00 0.00 0.00 0.00 0.00 0.00 0.00 0.00 0.00 0.00 0.00 0.02 0.03 0.01 0.00 0.01 0.00 0.00 0.00 0.00 0.00 0.00 0.00 0.00 0.00 0.00 0.03 0.09 0.00 0.00 0.01 0.00 0.00 0.03 0.05 0.00
0.00 0.00 0.00 0.00 0.00 0.00 0.00 0.00 0.00 0.00 0.00 0.00 0.00 0.00 0.00 0.00 0.00 0.00 0.00 0.00 0.00 0.00 0.00 0.00 0.02 0.03 0.02 0.00 0.00 0.00 0.00 0.00 0.00 0.00 0.00 0.00 0.00 0.00 0.00 0.00 0.00 0.00 0.00 0.00 0.00 0.00 0.01 0.08 0.02
0.00 0.00 0.00 0.01 0.00 0.02 0.02 0.06 0.11 0.08 0.07 0.00 0.00 0.00 0.00 0.00 0.00 0.00 0.00 0.00 0.00 0.00 0.00 0.00 0.02 0.05 0.05 0.00 0.01 0.01 0.01 0.01 0.01 0.00 0.00 0.00 0.00 0.00 0.00 0.00 0.00 0.02 0.01 0.03 0.09 0.03 0.05 0.24 0.27
0.00 0.00 0.00 0.00 0.00 0.07 0.05 0.08 0.09 0.13 0.09 0.02 0.00 0.00 0.00 0.00 0.00 0.02 0.00 0.00 0.00 0.00 0.00 0.00 0.01 0.01 0.03 0.03 0.00 0.02 0.00 0.01 0.00 0.00 0.00 0.02 0.10 0.01 0.00 0.00 0.00 0.01 0.00 0.04 0.04 0.02 0.04 0.06 0.32
0.00 0.00 0.00 0.00 0.00 0.00 0.01 0.02 0.03 0.02 0.10 0.14 0.02 0.00 0.00 0.00 0.00 0.00 0.00 0.00 0.00 0.00 0.00 0.00 0.00 0.06 0.14 0.03 0.05 0.02 0.01 0.00 0.00 0.00 0.02 0.02 0.18 0.02 0.00 0.00 0.01 0.00 0.00 0.02 0.04 0.04 0.03 0.05 0.15
0.00 0.00 0.00 0.00 0.00 0.01 0.01 0.00 0.00 0.02 0.10 0.23 0.03 0.00 0.00 0.00 0.00 0.00 0.00 0.00 0.00 0.00 0.00 0.00 0.00 0.06 0.17 0.04 0.04 0.07 0.04 0.03 0.01 0.04 0.03 0.03 0.01 0.00 0.00 0.00 0.01 0.00 0.01 0.02 0.03 0.03 0.02 0.03 0.11
0.00 0.00 0.00 0.00 0.04 0.10 0.01 0.00 0.00 0.00 0.00 0.00 0.00 0.00 0.00 0.00 0.00 0.00 0.00 0.00 0.00 0.00 0.00 0.00 0.00 0.00 0.04 0.05 0.02 0.05 0.05 0.06 0.05 0.04 0.00 0.00 0.00 0.01 0.00 0.02 0.03 0.04 0.06 0.04 0.03 0.07 0.07 0.02 0.05
0.00 0.00 0.00 0.00 0.01 0.01 0.00 0.02 0.00 0.00 0.00 0.00 0.00 0.00 0.00 0.00 0.00 0.00 0.00 0.00 0.00 0.00 0.00 0.00 0.00 0.01 0.03 0.05 0.07 0.09 0.03 0.01 0.00 0.01 0.00 0.00 0.00 0.00 0.03 0.16 0.09 0.05 0.04 0.02 0.01 0.03 0.02 0.05 0.08
0.00 0.00 0.00 0.00 0.00 0.00 0.00 0.00 0.00 0.00 0.00 0.00 0.00 0.00 0.00 0.00 0.00 0.00 0.00 0.00 0.00 0.00 0.00 0.00 0.00 0.00 0.00 0.02 0.10 0.06 0.03 0.00 0.00 0.00 0.00 0.00 0.00 0.00 0.02 0.38 0.22 0.07 0.04 0.03 0.01 0.02 0.04 0.05 0.06
0.00 0.00 0.00 0.00 0.00 0.00 0.00 0.00 0.00 0.02 0.00 0.00 0.00 0.00 0.00 0.00 0.00 0.00 0.00 0.00 0.00 0.00 0.00 0.00 0.00 0.00 0.00 0.00 0.00 0.00 0.00 0.00 0.00 0.00 0.00 0.00 0.00 0.00 0.00 0.09 0.09 0.02 0.02 0.06 0.05 0.02 0.03 0.09 0.03
0.00 0.00 0.00 0.00 0.00 0.00 0.00 0.00 0.02 0.09 0.06 0.00 0.00 0.00 0.00 0.00 0.00 0.00 0.00 0.00 0.00 0.00 0.00 0.00 0.00 0.00 0.00 0.00 0.00 0.00 0.00 0.00 0.00 0.00 0.00 0.00 0.00 0.00 0.00 0.01 0.04 0.03 0.01 0.03 0.04 0.04 0.04 0.07 0.04
0.00 0.00 0.00 0.00 0.00 0.00 0.00 0.00 0.00 0.00 0.02 0.00 0.00 0.00 0.00 0.00 0.00 0.00 0.00 0.00 0.00 0.00 0.00 0.00 0.00 0.00 0.00 0.00 0.00 0.00 0.00 0.00 0.00 0.00 0.00 0.00 0.00 0.00 0.00 0.00 0.01 0.01 0.00 0.03 0.03 0.02 0.03 0.11 0.06
MSLP
1007.88 1007.36 1006.61 1005.92 1006.16 1005.69 1006.64 1006.94 1005.11 1004.07 1003.46 1002.58 1002.54 1002.95 1005.00 1006.26 1007.06 1008.05 1008.82 1008.84 1010.33 1011.70 1012.67 1013.24 1013.76 1013.96 1014.12 1014.42 1014.64 1014.63 1014.78 1014.97 1015.22 1015.53 1015.75 1015.88 1016.14 1016.27 1016.24 1016.27 1016.38 1016.30 1016.42 1016.59 1016.77 1016.82 1016.84 1016.94 1017.17
1006.96 1006.13 1005.31 1005.30 1005.80 1006.70 1008.11 1007.18 1005.95 1004.28 1003.90 1002.97 1002.96 1004.19 1004.56 1005.85 1006.65 1007.98 1008.90 1009.79 1010.64 1011.78 1012.34 1013.17 1013.86 1014.00 1014.30 1014.55 1014.76 1014.89 1014.92 1015.21 1015.42 1015.66 1015.89 1015.98 1016.20 1016.30 1016.32 1016.38 1016.47 1016.49 1016.50 1016.58 1016.90 1016.94 1016.92 1016.99 1017.14
1007.20 1005.70 1005.55 1005.10 1005.71 1006.29 1007.54 1007.71 1005.86 1003.71 1002.83 1002.95 1003.04 1003.80 1005.17 1006.17 1007.20 1008.31 1009.61 1010.14 1010.58 1011.19 1012.26 1013.55 1014.05 1014.27 1014.48 1014.75 1014.94 1015.12 1015.19 1015.46 1015.58 1015.80 1015.95 1016.07 1016.26 1016.38 1016.39 1016.50 1016.61 1016.67 1016.61 1016.71 1016.97 1017.11 1016.94 1017.02 1017.26
1005.66 1005.28 1004.91 1005.05 1005.13 1006.16 1006.95 1007.05 1005.54 1003.83 1003.38 1003.08 1003.63 1004.88 1005.79 1005.98 1006.89 1008.57 1009.80 1010.46 1011.12 1011.84 1012.79 1013.71 1014.21 1014.45 1014.68 1014.88 1015.08 1015.29 1015.47 1015.64 1015.73 1015.93 1016.02 1016.15 1016.33 1016.41 1016.41 1016.52 1016.65 1016.72 1016.69 1016.89 1017.13 1017.21 1017.05 1017.06 1017.57
1005.08 1005.47 1005.63 1005.31 1005.39 1005.84 1005.84 1005.58 1004.57 1004.56 1004.02 1003.43 1004.25 1006.03 1006.19 1006.40 1007.37 1008.35 1009.59 1010.38 1010.84 1011.93 1012.77 1014.06 1014.41 1014.56 1014.73 1014.94 1015.12 1015.34 1015.54 1015.72 1015.88 1015.99 1016.10 1016.25 1016.40 1016.41 1016.42 1016.59 1016.73 1016.77 1016.72 1016.90 1017.27 1017.43 1017.27 1017.10 1017.58
1004.68 1004.40 1005.66 1005.78 1005.71 1005.32 1005.05 1004.47 1004.43 1004.83 1005.34 1004.21 1004.64 1005.53 1006.19 1006.48 1007.48 1008.41 1009.24 1010.04 1011.29 1012.10 1012.41 1014.09 1014.55 1014.67 1014.85 1015.05 1015.28 1015.53 1015.65 1015.80 1015.99 1016.03 1016.19 1016.26 1016.42 1016.42 1016.47 1016.64 1016.70 1016.75 1016.76 1016.89 1017.32 1017.55 1017.32 1017.13 1017.31
1004.03 1004.36 1005.66 1005.62 1006.21 1005.49 1005.23 1004.56 1004.49 1005.71 1006.28 1006.18 1004.85 1005.85 1006.58 1006.98 1007.99 1008.73 1009.44 1010.43 1011.07 1011.97 1012.37 1013.61 1014.24 1014.68 1014.92 1015.13 1015.40 1015.54 1015.71 1015.86 1016.02 1016.15 1016.24 1016.28 1016.33 1016.40 1016.48 1016.61 1016.65 1016.77 1016.74 1016.84 1017.11 1017.36 1017.32 1017.34 1017.63
1003.83 1004.63 1006.56 1006.69 1005.91 1005.35 1004.97 1004.71 1005.16 1006.32 1008.28 1007.02 1005.15 1005.82 1006.21 1007.48 1008.19 1009.13 1009.42 1010.19 1011.25 1012.16 1012.51 1013.29 1013.91 1014.52 1014.69 1015.15 1015.43 1015.67 1015.82 1015.94 1016.02 1016.09 1016.13 1016.15 1016.18 1016.25 1016.31 1016.46 1016.58 1016.66 1016.62 1016.74 1016.99 1017.13 1017.27 1017.46 1017.77
1003.52 1005.30 1006.90 1006.87 1005.44 1005.47 1005.30 1005.24 1005.52 1006.53 1007.82 1007.82 1005.20 1005.22 1005.82 1007.19 1007.96 1009.01 1009.47 1010.02 1011.28 1011.75 1012.33 1012.86 1013.43 1014.04 1014.52 1014.92 1015.40 1015.75 1015.91 1016.04 1016.13 1016.02 1015.99 1016.09 1015.87 1016.01 1016.13 1016.13 1016.46 1016.58 1016.59 1016.74 1016.87 1016.99 1017.28 1017.05 1017.17
1003.35 1004.67 1005.64 1005.55 1004.94 1005.50 1005.51 1005.84 1006.42 1006.26 1006.54 1006.30 1005.79 1005.91 1006.58 1006.85 1007.58 1008.85 1009.48 1010.17 1010.69 1011.76 1012.32 1012.88 1013.14 1013.69 1014.36 1014.81 1015.44 1015.66 1015.82 1016.06 1016.12 1016.10 1015.94 1016.02 1015.84 1015.69 1015.64 1015.86 1016.13 1016.38 1016.59 1016.71 1016.92 1016.86 1017.04 1016.73 1017.04
1003.47 1004.24 1004.10 1004.71 1005.18 1005.16 1005.11 1005.99 1006.18 1005.94 1007.54 1007.77 1008.04 1006.41 1007.11 1007.52 1007.68 1008.27 1009.24 1010.01 1010.54 1011.62 1012.39 1013.18 1013.57 1013.60 1014.02 1014.82 1015.18 1015.49 1015.78 1015.78 1015.89 1015.86 1015.68 1015.71 1015.44 1015.18 1015.32 1015.92 1016.25 1016.41 1016.51 1016.54 1016.72 1016.99 1017.03 1016.72 1016.43
1003.62 1003.60 1003.53 1004.19 1004.90 1005.02 1005.47 1006.19 1006.45 1007.48 1009.01 1008.16 1008.64 1007.65 1006.89 1007.43 1008.28 1009.20 1009.84 1010.27 1011.01 1011.88 1012.47 1012.91 1013.33 1013.97 1014.45 1014.91 1015.18 1015.42 1015.49 1015.76 1015.77 1015.70 1015.76 1015.64 1015.29 1015.25 1015.84 1015.96 1016.17 1016.02 1015.98 1015.81 1016.08 1016.81 1016.79 1016.76 1017.15
1003.04 1003.23 1002.85 1003.75 1004.54 1004.90 1005.40 1005.83 1006.28 1007.67 1008.34 1007.72 1007.05 1006.36 1006.58 1007.35 1008.34 1009.20 1009.88 1010.52 1010.99 1011.82 1012.28 1012.72 1013.34 1014.04 1014.52 1014.87 1015.18 1015.44 1015.46 1015.30 1015.19 1015.47 1015.70 1015.65 1015.48 1015.23 1015.06 1015.30 1015.53 1015.13 1015.33 1015.40 1015.61 1016.38 1016.60 1016.57 1016.35
1002.75 1002.91 1002.55 1003.13 1003.82 1004.50 1004.92 1005.84 1006.59 1007.22 1007.15 1007.39 1006.31 1006.08 1006.40 1007.32 1008.05 1008.93 1009.92 1010.65 1011.00 1011.45 1012.03 1012.93 1013.32 1013.78 1014.22 1014.82 1015.05 1015.18 1015.23 1014.89 1015.11 1015.06 1015.20 1015.21 1015.23 1015.62 1015.09 1015.23 1015.06 1014.95 1014.78 1015.24 1015.59 1016.35 1016.53 1016.34 1015.87
1002.58 1002.66 1002.15 1003.14 1003.38 1004.14 1004.74 1005.99 1006.56 1007.28 1007.06 1005.98 1005.87 1005.69 1005.93 1007.23 1007.84 1008.44 1009.12 1009.94 1010.91 1011.35 1011.99 1012.82 1013.16 1013.70 1014.40 1014.75 1014.77 1014.81 1014.81 1014.46 1014.50 1014.85 1014.98 1014.84 1015.05 1015.21 1015.44 1015.80 1016.19 1015.46 1014.60 1014.72 1015.07 1015.87 1016.22 1016.73 1015.81
1002.28 1002.19 1002.58 1003.71 1002.96 1003.59 1004.78 1005.57 1006.20 1006.58 1006.66 1005.95 1005.37 1005.32 1005.72 1006.82 1007.44 1008.20 1008.98 1009.79 1010.80 1011.04 1011.84 1012.68 1013.16 1013.57 1014.42 1014.61 1014.61 1014.59 1014.38 1014.43 1014.72 1014.73 1014.63 1014.71 1014.95 1015.18 1016.17 1017.42 1017.77 1016.32 1015.35 1015.02 1015.18 1016.17 1016.58 1016.86 1016.21
1001.45 1002.14 1002.66 1002.49 1002.87 1003.34 1004.37 1006.15 1006.58 1006.20 1006.26 1005.74 1005.10 1004.83 1005.37 1006.10 1007.04 1007.88 1008.77 1009.29 1010.16 1010.86 1011.60 1012.30 1012.89 1013.30 1014.01 1014.42 1014.45 1014.51 1014.52 1014.61 1014.86 1014.70 1014.24 1014.65 1014.79 1015.08 1016.59 1017.36 1017.72 1016.63 1015.59 1015.33 1016.51 1016.09 1016.55 1016.81 1015.96
1001.35 1001.61 1001.28 1001.65 1002.61 1002.98 1003.72 1005.29 1006.49 1005.95 1005.47 1005.14 1004.48 1004.27 1004.87 1005.65 1006.10 1007.21 1007.89 1008.61 1009.58 1010.40 1011.46 1011.99 1012.83 1013.41 1013.86 1014.22 1014.64 1014.61 1014.61 1014.62 1014.51 1014.11 1014.07 1014.47 1014.60 1014.88 1015.69 1017.08 1016.94 1015.67 1015.28 1015.46 1016.10 1015.75 1016.03 1016.04 1015.45
1001.26 1001.10 1000.87 1001.37 1001.79 1002.70 1002.99 1003.65 1004.85 1005.11 1004.79 1004.63 1004.08 1003.61 1003.96 1004.41 1005.49 1006.22 1006.92 1008.10 1008.95 1010.28 1011.21 1011.97 1012.59 1013.26 1013.72 1014.15 1014.59 1014.58 1014.65 1014.16 1014.06 1014.05 1014.41 1014.29 1014.69 1014.94 1014.83 1015.25 1015.95 1014.49 1015.09 1015.40 1015.14 1015.41 1015.85 1015.94 1015.19
1000.76 1000.39 1000.73 1002.07 1001.79 1002.55 1003.23 1003.22 1003.87 1003.98 1003.56 1003.53 1003.31 1003.20 1003.25 1003.76 1005.01 1005.90 1006.44 1007.38 1008.58 1009.85 1010.87 1011.65 1012.52 1013.10 1013.64 1013.83 1014.02 1013.98 1014.17 1013.83 1013.69 1013.89 1014.15 1014.11 1014.43 1014.47 1014.47 1014.53 1014.75 1014.89 1014.77 1015.08 1015.42 1015.34 1015.16 1015.56 1014.98
999.94 999.70 1000.57 1001.86 1001.43 1003.28 1004.11 1005.06 1005.31 1005.53 1004.82 1002.82 1002.97 1003.02 1002.70 1003.25 1004.22 1005.34 1006.07 1006.97 1008.09 1009.36 1010.41 1011.28 1012.10 1012.82 1013.35 1013.52 1013.73 1013.83 1013.90 1013.82 1013.74 1014.06 1014.42 1014.20 1014.20 1014.30 1014.43 1014.52 1014.43 1014.74 1015.09 1015.48 1015.52 1015.51 1014.97 1014.86 1014.89
999.11 999.34 999.86 1000.42 1001.15 1002.85 1004.43 1005.88 1005.82 1005.95 1005.40 1004.96 1002.48 1002.35 1002.24 1002.65 1003.55 1004.40 1005.12 1006.12 1007.19 1008.71 1009.77 1010.78 1011.61 1012.46 1012.90 1013.18 1013.29 1013.54 1013.71 1013.90 1013.99 1014.20 1014.29 1014.60 1014.57 1014.69 1014.06 1014.08 1014.34 1014.55 1014.73 1015.30 1015.20 1015.08 1014.81 1014.28 1015.03
999.58 999.47 1000.13 1000.49 1000.84 1002.12 1004.19 1005.28 1004.71 1005.26 1006.83 1004.64 1003.27 1001.49 1001.55 1001.67 1002.63 1003.74 1004.51 1005.49 1006.12 1007.36 1008.84 1010.26 1011.19 1012.03 1012.55 1012.97 1013.01 1013.32 1013.60 1013.59 1013.70 1013.96 1014.22 1014.49 1014.31 1014.22 1013.96 1014.31 1014.41 1014.59 1014.71 1014.91 1014.95 1014.88 1014.86 1014.42 1014.88
999.71 999.78 1000.04 1000.55 1002.77 1003.32 1003.23 1003.27 1003.00 1003.49 1003.10 1003.42 1001.71 1000.72 1000.67 1000.92 1001.77 1002.97 1003.91 1004.88 1006.13 1006.82 1008.02 1009.69 1010.61 1011.62 1012.45 1012.84 1013.13 1013.34 1013.33 1013.58 1013.71 1013.76 1014.01 1014.36 1014.50 1014.54 1014.29 1014.17 1014.43 1014.19 1014.51 1014.67 1014.74 1014.76 1014.54 1014.53 1014.72
999.31 999.40 1000.18 1001.20 1004.16 1005.48 1002.47 1003.01 1000.52 999.69 1000.36 999.83 999.43 999.13 999.49 1000.22 1000.99 1002.37 1003.47 1004.56 1005.73 1006.65 1007.50 1008.86 1010.19 1011.23 1011.97 1012.56 1012.79 1013.18 1013.27 1013.49 1013.78 1013.75 1013.98 1014.12 1014.39 1014.43 1014.31 1014.27 1014.28 1014.11 1014.34 1014.33 1014.27 1014.72 1014.84 1014.62 1014.77
998.43 998.51 999.50 999.44 1001.25 1001.21 1001.17 1002.31 999.90 998.77 998.70 999.20 998.99 998.53 999.00 999.77 1000.66 1001.86 1003.02 1004.30 1005.40 1006.42 1007.34 1008.26 1009.76 1010.79 1011.55 1012.23 1012.50 1012.88 1013.06 1013.23 1013.38 1013.60 1013.53 1013.68 1013.70 1013.87 1013.79 1013.43 1014.07 1014.02 1013.96 1013.93 1014.03 1014.57 1014.88 1014.53 1014.71
998.29 997.88 997.43 997.75 997.58 997.74 999.98 1000.39 999.19 998.87 998.53 998.44 998.28 998.58 998.95 999.78 1000.61 1001.65 1002.83 1004.11 1005.32 1006.23 1007.19 1008.11 1009.28 1010.24 1011.07 1011.66 1012.31 1012.73 1012.97 1012.99 1012.85 1012.96 1013.27 1013.51 1013.58 1013.50 1013.65 1013.67 1013.86 1014.41 1013.99 1013.87 1014.01 1014.32 1014.63 1014.68 1014.60
997.86 997.86 997.71 997.46 997.50 997.73 998.07 999.39 1000.40 1000.86 1000.04 999.23 998.65 998.52 999.25 999.94 1000.64 1001.72 1002.67 1003.68 1004.82 1005.85 1006.98 1007.90 1008.87 1009.70 1010.58 1011.15 1011.76 1012.21 1012.57 1012.75 1012.83 1012.81 1012.95 1013.09 1013.33 1013.35 1013.52 1014.11 1014.15 1014.25 1014.09 1014.05 1014.33 1014.36 1014.40 1014.42 1014.40
997.45 997.53 997.51 997.55 997.60 997.41 997.92 998.85 1000.14 1001.42 1001.29 999.53 998.94 998.79 999.35 1000.03 1000.79 1001.58 1002.44 1003.52 1004.47 1005.43 1006.55 1007.70 1008.65 1009.40 1009.94 1010.37 1010.94 1011.43 1011.92 1012.28 1012.55 1012.60 1012.75 1012.88 1013.21 1013.46 1013.61 1013.64 1013.93 1014.00 1014.00 1014.19 1014.45 1014.46 1014.29 1014.06 1014.14
996.82 996.89 996.77 996.76 996.74 996.76 996.81 997.60 998.73 1000.37 999.55 998.76 998.60 998.65 999.24 1000.01 1000.82 1001.61 1002.41 1003.54 1004.42 1005.32 1006.25 1007.20 1008.07 1008.76 1009.34 1009.78 1010.22 1010.73 1011.23 1011.63 1011.98 1012.27 1012.46 1012.76 1013.01 1013.29 1013.56 1013.61 1013.69 1013.75 1013.80 1014.09 1014.18 1014.15 1013.94 1013.69 1013.98
Thickness
5830 5835 5842 5834 5794 5797 5769 5775 5811 5812 5804 5842 5843 5830 5804 5796 5778 5764 5809 5816 5805 5794 5786 5783 5778 5778 5778 5777 5777 5777 5776 5775 5772 5768 5766 5765 5762 5759 5760 5759 5757 5758 5756 5754 5752 5750 5750 5748 5744
5838 5846 5843 5823 5786 5760 5753 5766 5797 5808 5812 5841 5839 5820 5812 5794 5813 5803 5801 5808 5802 5793 5788 5783 5778 5776 5775 5776 5777 5774 5775 5772 5770 5768 5766 5765 5762 5760 5760 5758 5758 5758 5757 5754 5751 5750 5750 5748 5744
5837 5848 5817 5807 5790 5773 5761 5763 5795 5829 5845 5839 5830 5832 5813 5797 5810 5805 5806 5806 5803 5798 5789 5781 5778 5774 5773 5774 5775 5773 5772 5771 5770 5768 5766 5764 5762 5760 5760 5759 5758 5758 5757 5754 5750 5748 5749 5748 5742
5841 5835 5831 5797 5792 5793 5779 5780 5802 5828 5839 5843 5832 5803 5817 5827 5816 5811 5807 5802 5797 5789 5783 5779 5776 5774 5772 5772 5772 5772 5770 5769 5768 5767 5766 5763 5762 5761 5761 5760 5759 5757 5757 5754 5749 5748 5748 5749 5740
5843 5824 5789 5793 5795 5800 5808 5814 5827 5816 5825 5832 5823 5787 5801 5820 5823 5818 5807 5800 5801 5792 5786 5773 5774 5773 5773 5773 5772 5771 5770 5768 5767 5767 5766 5765 5762 5762 5762 5761 5758 5757 5757 5755 5749 5746 5747 5750 5742
5818 5827 5778 5775 5786 5810 5818 5831 5827 5818 5809 5826 5816 5806 5804 5826 5818 5814 5810 5803 5798 5791 5788 5771 5771 5773 5773 5772 5771 5769 5770 5768 5766 5766 5765 5765 5763 5764 5763 5761 5759 5757 5757 5756 5749 5745 5747 5750 5746
5816 5809 5783 5781 5780 5795 5806 5831 5820 5805 5800 5799 5828 5794 5806 5814 5816 5814 5808 5800 5796 5791 5787 5776 5774 5772 5771 5771 5770 5770 5769 5768 5767 5765 5765 5765 5765 5765 5764 5762 5759 5757 5758 5755 5750 5747 5749 5748 5744
5828 5813 5773 5774 5784 5791 5816 5823 5823 5806 5778 5805 5830 5791 5795 5807 5814 5810 5809 5803 5795 5787 5784 5782 5778 5773 5773 5770 5770 5769 5768 5768 5767 5765 5765 5766 5767 5767 5766 5763 5762 5759 5758 5756 5751 5750 5749 5746 5742
5845 5781 5763 5760 5795 5796 5818 5809 5822 5816 5792 5793 5825 5820 5821 5820 5816 5806 5801 5799 5792 5791 5790 5787 5783 5778 5775 5772 5770 5768 5768 5767 5766 5766 5768 5767 5770 5770 5768 5767 5764 5761 5760 5755 5752 5751 5746 5752 5751
5822 5791 5778 5803 5817 5801 5811 5806 5803 5807 5806 5809 5814 5823 5821 5819 5814 5801 5796 5791 5791 5786 5788 5787 5786 5782 5778 5774 5770 5769 5768 5767 5766 5767 5769 5769 5771 5773 5771 5771 5768 5765 5761 5757 5751 5751 5747 5754 5755
5821 5794 5817 5815 5816 5817 5814 5806 5813 5810 5786 5792 5781 5808 5809 5809 5810 5806 5799 5795 5793 5790 5787 5784 5784 5784 5781 5775 5773 5771 5769 5769 5769 5770 5772 5772 5774 5777 5776 5772 5769 5767 5764 5760 5755 5751 5749 5755 5757
5804 5819 5826 5820 5819 5816 5806 5807 5802 5792 5776 5794 5793 5802 5812 5806 5801 5797 5793 5795 5790 5787 5786 5786 5785 5783 5777 5775 5773 5771 5771 5770 5770 5772 5772 5773 5777 5778 5774 5774 5773 5770 5769 5768 5763 5756 5754 5753 5752
5810 5817 5831 5825 5819 5816 5815 5804 5802 5790 5790 5801 5808 5816 5813 5806 5802 5802 5798 5795 5794 5787 5788 5787 5786 5781 5777 5775 5773 5772 5772 5774 5775 5773 5771 5773 5777 5780 5779 5779 5777 5779 5775 5772 5769 5762 5759 5759 5760
5824 5823 5828 5827 5822 5817 5808 5801 5799 5798 5802 5798 5812 5813 5813 5805 5804 5801 5795 5791 5791 5790 5789 5784 5784 5782 5778 5775 5773 5774 5774 5777 5776 5777 5775 5777 5777 5774 5781 5782 5783 5782 5781 5772 5765 5761 5760 5763 5767
5825 5809 5826 5818 5820 5811 5817 5788 5786 5797 5800 5809 5807 5812 5815 5806 5808 5803 5802 5796 5791 5790 5789 5784 5784 5780 5776 5774 5774 5775 5776 5780 5780 5778 5778 5780 5777 5778 5779 5772 5771 5776 5785 5782 5776 5767 5762 5759 5767
5811 5816 5783 5796 5820 5819 5808 5774 5795 5804 5799 5800 5811 5814 5813 5807 5809 5808 5804 5799 5794 5794 5787 5784 5783 5781 5774 5773 5774 5775 5778 5779 5778 5779 5781 5781 5778 5780 5769 5763 5757 5768 5778 5782 5779 5767 5759 5756 5767
5813 5776 5785 5796 5820 5814 5804 5769 5785 5806 5802 5802 5810 5815 5814 5810 5807 5808 5807 5804 5797 5793 5788 5785 5783 5781 5777 5774 5773 5774 5775 5776 5777 5780 5786 5782 5781 5781 5770 5753 5757 5771 5783 5785 5770 5771 5764 5760 5770
5788 5792 5809 5799 5809 5813 5804 5787 5784 5800 5807 5806 5813 5817 5814 5809 5811 5812 5810 5809 5804 5797 5790 5786 5782 5779 5777 5776 5773 5773 5774 5777 5780 5785 5787 5784 5784 5785 5774 5765 5767 5781 5788 5781 5776 5775 5770 5769 5776
5810 5807 5806 5812 5823 5810 5810 5809 5804 5806 5812 5806 5812 5818 5819 5819 5818 5819 5817 5810 5805 5795 5789 5784 5781 5778 5777 5774 5770 5771 5771 5780 5785 5787 5785 5788 5784 5784 5786 5783 5778 5790 5784 5780 5784 5778 5772 5768 5782
5812 5809 5804 5802 5822 5814 5805 5812 5806 5813 5819 5819 5817 5819 5821 5821 5817 5814 5815 5813 5804 5795 5790 5785 5780 5778 5776 5777 5777 5779 5779 5786 5789 5787 5787 5788 5785 5784 5787 5788 5788 5785 5785 5781 5776 5777 5780 5778 5786
5815 5814 5802 5785 5816 5795 5791 5771 5772 5787 5785 5829 5827 5827 5831 5824 5817 5814 5812 5808 5807 5797 5790 5786 5783 5779 5777 5779 5780 5780 5782 5785 5786 5785 5782 5785 5788 5787 5785 5784 5789 5789 5785 5778 5770 5776 5783 5780 5779
5808 5833 5827 5818 5810 5773 5782 5746 5764 5773 5777 5786 5827 5826 5829 5829 5825 5819 5819 5814 5809 5801 5796 5789 5784 5780 5780 5780 5781 5779 5778 5776 5781 5782 5783 5782 5788 5790 5792 5792 5788 5793 5792 5784 5782 5782 5783 5790 5762
5808 5833 5820 5820 5816 5799 5778 5754 5779 5778 5753 5748 5798 5831 5833 5837 5832 5822 5822 5818 5819 5812 5803 5792 5786 5782 5781 5780 5781 5779 5777 5782 5784 5783 5783 5784 5789 5791 5793 5789 5787 5790 5791 5789 5788 5785 5781 5787 5781
5830 5819 5820 5818 5775 5760 5784 5785 5785 5784 5775 5774 5806 5830 5838 5841 5837 5832 5828 5825 5817 5816 5808 5795 5788 5782 5779 5780 5779 5778 5779 5778 5779 5781 5779 5782 5785 5786 5785 5787 5784 5788 5790 5789 5789 5789 5788 5786 5784
5822 5808 5768 5765 5719 5707 5790 5768 5809 5837 5826 5838 5841 5847 5847 5846 5843 5831 5825 5821 5816 5812 5809 5802 5791 5783 5782 5780 5780 5778 5779 5779 5777 5779 5778 5777 5779 5779 5782 5784 5785 5788 5787 5789 5792 5787 5786 5786 5784
5820 5819 5772 5757 5737 5766 5802 5747 5802 5847 5850 5846 5848 5852 5851 5847 5844 5835 5829 5823 5817 5813 5809 5805 5793 5785 5783 5780 5779 5779 5780 5780 5781 5780 5783 5782 5782 5782 5786 5790 5789 5788 5786 5789 5791 5786 5785 5788 5785
5814 5809 5847 5819 5834 5824 5796 5795 5830 5842 5843 5845 5846 5845 5844 5843 5841 5836 5831 5825 5817 5812 5809 5805 5796 5790 5785 5782 5779 5778 5778 5779 5782 5783 5783 5782 5783 5785 5789 5786 5787 5782 5785 5789 5789 5787 5784 5785 5784
5827 5840 5804 5818 5784 5779 5813 5794 5783 5790 5814 5833 5835 5839 5839 5841 5839 5834 5830 5826 5822 5817 5811 5806 5800 5794 5789 5786 5783 5781 5780 5781 5782 5784 5784 5784 5783 5784 5785 5782 5781 5781 5782 5785 5783 5783 5785 5784 5784
5821 5814 5822 5825 5818 5793 5780 5789 5798 5773 5785 5829 5837 5839 5838 5838 5836 5835 5832 5828 5825 5820 5813 5806 5800 5795 5793 5792 5789 5786 5784 5783 5783 5784 5785 5785 5782 5780 5779 5781 5779 5780 5781 5780 5778 5779 5782 5783 5783
5845 5832 5838 5812 5810 5824 5822 5798 5834 5810 5808 5841 5841 5842 5844 5842 5839 5836 5833 5828 5823 5819 5814 5808 5804 5800 5798 5795 5793 5790 5788 5787 5785 5784 5784 5784 5781 5780 5777 5778 5779 5780 5781 5778 5778 5778 5781 5782 5780